| time (UTC) | temp F | wind direction | speed knots | gust knots | rain 1hr in | rain 24hr in | rain mn in | humidity % | barometer mb |
| 20260506224504 | 61 | 115 | 0.0 | 0.9 | 0.00 | 0.00 | 0.00 | 49 | 1019.2 |
| 20260506224001 | 62 | 131 | 0.0 | 0.0 | 0.00 | 0.00 | 0.00 | 48 | 1019.0 |
| 20260506223456 | 61 | 119 | 0.0 | 0.9 | 0.00 | 0.00 | 0.00 | 51 | 1018.9 |
| 20260506222954 | 61 | 279 | 0.9 | 1.7 | 0.00 | 0.00 | 0.00 | 50 | 1018.9 |
| 20260506222450 | 61 | 119 | 0.0 | 0.0 | 0.00 | 0.00 | 0.00 | 51 | 1018.9 |
| 20260506221947 | 62 | 115 | 0.0 | 0.9 | 0.00 | 0.00 | 0.00 | 52 | 1018.8 |
| 20260506221444 | 63 | 353 | 5.2 | 6.1 | 0.00 | 0.00 | 0.00 | 47 | 1018.9 |
| 20260506220942 | 63 | 23 | 1.7 | 2.6 | 0.00 | 0.00 | 0.00 | 46 | 1018.9 |
| 20260506220437 | 62 | 121 | 0.0 | 0.0 | 0.00 | 0.00 | 0.00 | 47 | 1019.0 |
| 20260506215934 | 62 | 115 | 0.9 | 0.9 | 0.00 | 0.00 | 0.00 | 48 | 1019.0 |
| 20260506215430 | 64 | 136 | 0.0 | 0.0 | 0.00 | 0.00 | 0.00 | 46 | 1018.9 |
| 20260506214926 | 64 | 135 | 0.0 | 0.9 | 0.00 | 0.00 | 0.00 | 45 | 1018.8 |
| 20260506214423 | 64 | 141 | 0.0 | 0.9 | 0.00 | 0.00 | 0.00 | 43 | 1019.2 |
| 20260506213921 | 64 | 130 | 0.0 | 0.9 | 0.00 | 0.00 | 0.00 | 45 | 1019.0 |
| 20260506213418 | 64 | 51 | 2.6 | 4.3 | 0.00 | 0.00 | 0.00 | 45 | 1019.2 |
| 20260506212916 | 63 | 327 | 1.7 | 4.3 | 0.00 | 0.00 | 0.00 | 45 | 1019.1 |
| 20260506212411 | 64 | 102 | 0.9 | 1.7 | 0.00 | 0.00 | 0.00 | 45 | 1019.2 |
| 20260506211906 | 66 | 204 | 0.9 | 1.7 | 0.00 | 0.00 | 0.00 | 42 | 1019.6 |
| 20260506211403 | 64 | 118 | 0.0 | 0.0 | 0.00 | 0.00 | 0.00 | 47 | 1019.5 |
| 20260506210900 | 66 | 144 | 0.0 | 0.9 | 0.00 | 0.00 | 0.00 | 45 | 1019.2 |
| 20260506210356 | 64 | 181 | 0.0 | 0.0 | 0.00 | 0.00 | 0.00 | 45 | 1019.3 |
| 20260506205854 | 64 | 334 | 5.2 | 7.0 | 0.00 | 0.00 | 0.00 | 45 | 1019.6 |
| 20260506205349 | 64 | 147 | 0.0 | 0.0 | 0.00 | 0.00 | 0.00 | 47 | 1019.5 |
| 20260506204846 | 64 | 159 | 0.9 | 1.7 | 0.00 | 0.00 | 0.00 | 46 | 1019.5 |
| 20260506204344 | 64 | 114 | 1.7 | 1.7 | 0.00 | 0.00 | 0.00 | 44 | 1019.7 |
| 20260506203841 | 64 | 115 | 0.0 | 0.9 | 0.00 | 0.00 | 0.00 | 46 | 1019.7 |
| 20260506203338 | 64 | 314 | 0.9 | 1.7 | 0.00 | 0.00 | 0.00 | 45 | 1020.0 |
| 20260506202835 | 65 | 161 | 0.9 | 0.9 | 0.00 | 0.00 | 0.00 | 46 | 1019.8 |
| 20260506202332 | 65 | 118 | 0.9 | 1.7 | 0.00 | 0.00 | 0.00 | 46 | 1020.0 |
| 20260506201829 | 64 | 39 | 2.6 | 4.3 | 0.00 | 0.00 | 0.00 | 48 | 1020.0 |
| 20260506201326 | 63 | 183 | 0.0 | 0.9 | 0.00 | 0.00 | 0.00 | 51 | 1020.2 |
| 20260506200823 | 63 | 331 | 2.6 | 2.6 | 0.00 | 0.00 | 0.00 | 49 | 1020.3 |
| 20260506200319 | 63 | 114 | 0.9 | 0.9 | 0.00 | 0.00 | 0.00 | 48 | 1020.1 |
| 20260506195815 | 65 | 125 | 0.0 | 0.0 | 0.00 | 0.00 | 0.00 | 49 | 1020.2 |
| 20260506195313 | 63 | 121 | 0.0 | 0.9 | 0.00 | 0.00 | 0.00 | 48 | 1020.3 |
| 20260506194809 | 64 | 145 | 0.0 | 0.0 | 0.00 | 0.00 | 0.00 | 48 | 1020.3 |
| 20260506194306 | 64 | 125 | 0.9 | 0.9 | 0.00 | 0.00 | 0.00 | 47 | 1020.4 |
| 20260506193804 | 62 | 115 | 0.0 | 0.0 | 0.00 | 0.00 | 0.00 | 49 | 1020.3 |
| 20260506193300 | 64 | 287 | 2.6 | 4.3 | 0.00 | 0.00 | 0.00 | 47 | 1020.4 |
| 20260506192756 | 64 | 119 | 0.9 | 1.7 | 0.00 | 0.00 | 0.00 | 48 | 1020.6 |
| 20260506192253 | 62 | 130 | 0.0 | 0.0 | 0.00 | 0.00 | 0.00 | 48 | 1020.7 |
| 20260506191750 | 62 | 116 | 0.0 | 0.9 | 0.00 | 0.00 | 0.00 | 49 | 1020.3 |
| 20260506191246 | 62 | 127 | 0.0 | 0.0 | 0.00 | 0.00 | 0.00 | 50 | 1020.4 |
| 20260506190744 | 61 | 122 | 0.0 | 0.9 | 0.00 | 0.00 | 0.00 | 47 | 1020.6 |
| 20260506190240 | 63 | 102 | 0.9 | 1.7 | 0.00 | 0.00 | 0.00 | 50 | 1020.4 |
| 20260506185737 | 62 | 113 | 1.7 | 1.7 | 0.00 | 0.00 | 0.00 | 50 | 1020.5 |
| 20260506185234 | 63 | 136 | 2.6 | 2.6 | 0.00 | 0.00 | 0.00 | 47 | 1020.5 |
| 20260506184731 | 63 | 107 | 0.9 | 1.7 | 0.00 | 0.00 | 0.00 | 49 | 1020.5 |
| 20260506184228 | 61 | 118 | 0.0 | 0.0 | 0.00 | 0.00 | 0.00 | 55 | 1020.6 |
| 20260506183725 | 61 | 100 | 1.7 | 1.7 | 0.00 | 0.00 | 0.00 | 51 | 1020.6 |
| 20260506183221 | 61 | 110 | 2.6 | 2.6 | 0.00 | 0.00 | 0.00 | 54 | 1020.7 |
| 20260506182718 | 63 | 105 | 1.7 | 2.6 | 0.00 | 0.00 | 0.00 | 53 | 1020.6 |
| 20260506182215 | 63 | 121 | 0.0 | 0.9 | 0.00 | 0.00 | 0.00 | 55 | 1021.0 |
| 20260506181713 | 62 | 115 | 0.9 | 0.9 | 0.00 | 0.00 | 0.00 | 54 | 1020.9 |
| 20260506181211 | 60 | 146 | 1.7 | 1.7 | 0.00 | 0.00 | 0.00 | 54 | 1020.6 |
| 20260506180707 | 59 | 121 | 2.6 | 5.2 | 0.00 | 0.00 | 0.00 | 55 | 1020.8 |
| 20260506180203 | 59 | 41 | 3.5 | 4.3 | 0.00 | 0.00 | 0.00 | 56 | 1021.2 |
| 20260506175700 | 58 | 110 | 1.7 | 2.6 | 0.00 | 0.00 | 0.00 | 57 | 1021.1 |
| 20260506175156 | 58 | 107 | 0.0 | 0.9 | 0.00 | 0.00 | 0.00 | 58 | 1021.3 |
| 20260506174649 | 58 | 116 | 0.9 | 0.9 | 0.00 | 0.00 | 0.00 | 59 | 1021.6 |
| 20260506174145 | 58 | 133 | 0.9 | 0.9 | 0.00 | 0.00 | 0.00 | 57 | 1021.3 |
| 20260506173643 | 57 | 120 | 0.9 | 2.6 | 0.00 | 0.00 | 0.00 | 61 | 1021.0 |
| 20260506173134 | 57 | 63 | 2.6 | 4.3 | 0.00 | 0.00 | 0.00 | 59 | 1021.5 |
| 20260506172631 | 57 | 112 | 0.9 | 1.7 | 0.00 | 0.00 | 0.00 | 63 | 1021.4 |
| 20260506172127 | 57 | 116 | 0.0 | 0.9 | 0.00 | 0.00 | 0.00 | 63 | 1021.4 |
| 20260506171625 | 56 | 129 | 0.0 | 0.0 | 0.00 | 0.00 | 0.00 | 68 | 1021.6 |
| 20260506171122 | 56 | 108 | 0.0 | 0.9 | 0.00 | 0.00 | 0.00 | 66 | 1021.7 |
| 20260506170620 | 56 | 69 | 0.9 | 1.7 | 0.00 | 0.00 | 0.00 | 66 | 1021.4 |
| 20260506170117 | 56 | 105 | 0.0 | 0.0 | 0.00 | 0.00 | 0.00 | 68 | 1021.4 |
| 20260506165615 | 57 | 330 | 2.6 | 2.6 | 0.00 | 0.00 | 0.00 | 67 | 1021.3 |
| 20260506165111 | 57 | 324 | 0.9 | 4.3 | 0.00 | 0.00 | 0.00 | 68 | 1021.2 |
| 20260506164609 | 56 | 341 | 0.0 | 0.9 | 0.00 | 0.00 | 0.00 | 72 | 1021.3 |
| 20260506164106 | 54 | 99 | 1.7 | 1.7 | 0.00 | 0.00 | 0.00 | 74 | 1021.1 |
| 20260506163601 | 54 | 115 | 0.0 | 0.0 | 0.00 | 0.00 | 0.00 | 72 | 1021.0 |
| 20260506163057 | 55 | 318 | 2.6 | 5.2 | 0.00 | 0.00 | 0.00 | 74 | 1021.5 |
| 20260506162553 | 54 | 125 | 0.0 | 0.0 | 0.00 | 0.00 | 0.00 | 74 | 1021.3 |
| 20260506162045 | 53 | 110 | 0.9 | 1.7 | 0.00 | 0.00 | 0.00 | 75 | 1021.1 |
| 20260506161543 | 52 | 0 | 0.9 | 1.7 | 0.00 | 0.00 | 0.00 | 74 | 1020.9 |
| 20260506161039 | 52 | 121 | 0.0 | 0.0 | 0.00 | 0.00 | 0.00 | 75 | 1021.0 |
| 20260506160537 | 52 | 117 | 0.0 | 0.0 | 0.00 | 0.00 | 0.00 | 79 | 1021.3 |
| 20260506160034 | 52 | 310 | 3.5 | 4.3 | 0.00 | 0.00 | 0.00 | 77 | 1021.2 |
| 20260506155533 | 52 | 93 | 0.0 | 0.0 | 0.00 | 0.00 | 0.00 | 78 | 1021.1 |
| 20260506153709 | 51 | 123 | 0.0 | 0.0 | 0.00 | 0.00 | 0.00 | 83 | 1021.3 |
| 20260506153207 | 50 | 348 | 3.5 | 5.2 | 0.00 | 0.00 | 0.00 | 83 | 1021.4 |
| 20260506152703 | 50 | 120 | 0.0 | 0.0 | 0.00 | 0.00 | 0.00 | 87 | 1021.1 |
| 20260506152201 | 50 | 112 | 0.0 | 0.0 | 0.00 | 0.00 | 0.00 | 84 | 1021.2 |
| 20260506151700 | 50 | 109 | 0.0 | 0.0 | 0.00 | 0.00 | 0.00 | 87 | 1021.1 |
| 20260506151155 | 49 | 112 | 0.0 | 0.0 | 0.00 | 0.00 | 0.00 | 87 | 1021.0 |
| 20260506150652 | 49 | 90 | 0.0 | 0.0 | 0.00 | 0.00 | 0.00 | 87 | 1021.0 |
| 20260506150150 | 49 | 124 | 0.0 | 0.0 | 0.00 | 0.00 | 0.00 | 90 | 1021.3 |
| 20260506145646 | 48 | 115 | 0.0 | 0.0 | 0.00 | 0.00 | 0.00 | 87 | 1021.2 |
| 20260506145143 | 49 | 119 | 0.0 | 0.0 | 0.00 | 0.00 | 0.00 | 91 | 1021.0 |
| 20260506144641 | 48 | 11 | 0.0 | 0.9 | 0.00 | 0.00 | 0.00 | 90 | 1021.2 |
| 20260506144137 | 48 | 114 | 0.0 | 0.0 | 0.00 | 0.00 | 0.00 | 91 | 1021.4 |
| 20260506143635 | 48 | 25 | 0.0 | 0.0 | 0.00 | 0.00 | 0.00 | 91 | 1021.0 |
| 20260506143133 | 48 | 13 | 0.9 | 2.6 | 0.00 | 0.00 | 0.00 | 92 | 1020.9 |
| 20260506142631 | 48 | 123 | 0.0 | 0.0 | 0.00 | 0.00 | 0.00 | 92 | 1020.8 |
| 20260506142129 | 47 | 111 | 0.0 | 0.0 | 0.00 | 0.00 | 0.00 | 93 | 1020.5 |
| 20260506141626 | 47 | 120 | 0.0 | 0.0 | 0.00 | 0.00 | 0.00 | 93 | 1020.7 |
| 20260506141124 | 47 | 119 | 0.0 | 0.0 | 0.00 | 0.00 | 0.00 | 93 | 1021.1 |
| 20260506140622 | 47 | 93 | 0.0 | 0.9 | 0.00 | 0.00 | 0.00 | 91 | 1021.2 |
| 20260506140119 | 47 | 347 | 0.9 | 1.7 | 0.00 | 0.00 | 0.00 | 93 | 1020.9 |
| 20260506135616 | 47 | 119 | 0.0 | 0.0 | 0.00 | 0.00 | 0.00 | 93 | 1020.9 |
| 20260506135112 | 47 | 91 | 0.0 | 0.0 | 0.00 | 0.00 | 0.00 | 93 | 1020.8 |
| 20260506134609 | 47 | 125 | 0.0 | 0.0 | 0.00 | 0.00 | 0.00 | 93 | 1020.8 |
| 20260506134104 | 47 | 126 | 0.0 | 0.0 | 0.00 | 0.00 | 0.00 | 93 | 1021.0 |
| 20260506133602 | 47 | 110 | 0.9 | 0.9 | 0.00 | 0.00 | 0.00 | 94 | 1020.6 |
| 20260506133059 | 46 | 131 | 0.0 | 0.0 | 0.00 | 0.00 | 0.00 | 94 | 1020.4 |
| 20260506132556 | 46 | 131 | 0.0 | 0.0 | 0.00 | 0.00 | 0.00 | 94 | 1020.8 |
| 20260506132053 | 46 | 133 | 0.0 | 0.0 | 0.00 | 0.00 | 0.00 | 95 | 1020.5 |
| 20260506131550 | 46 | 133 | 0.0 | 0.0 | 0.00 | 0.00 | 0.00 | 95 | 1020.8 |
| 20260506131046 | 45 | 133 | 0.0 | 0.0 | 0.00 | 0.00 | 0.00 | 95 | 1020.6 |
| 20260506130543 | 45 | 133 | 0.0 | 0.0 | 0.00 | 0.00 | 0.00 | 95 | 1020.6 |
| 20260506130041 | 45 | 131 | 0.0 | 0.0 | 0.00 | 0.00 | 0.00 | 95 | 1020.7 |
| 20260506125539 | 45 | 131 | 0.0 | 0.0 | 0.00 | 0.00 | 0.00 | 95 | 1020.4 |
| 20260506125036 | 45 | 131 | 0.0 | 0.0 | 0.00 | 0.00 | 0.00 | 95 | 1020.5 |
| 20260506124534 | 45 | 131 | 0.0 | 0.0 | 0.00 | 0.00 | 0.00 | 95 | 1020.3 |
| 20260506124032 | 44 | 130 | 0.0 | 0.0 | 0.00 | 0.00 | 0.00 | 95 | 1019.9 |
| 20260506123529 | 44 | 130 | 0.0 | 0.0 | 0.00 | 0.00 | 0.00 | 95 | 1019.6 |
| 20260506123027 | 44 | 130 | 0.0 | 0.0 | 0.00 | 0.00 | 0.00 | 95 | 1019.8 |
| 20260506122523 | 44 | 131 | 0.0 | 0.0 | 0.00 | 0.00 | 0.00 | 95 | 1020.1 |
| 20260506122022 | 44 | 131 | 0.0 | 0.0 | 0.00 | 0.00 | 0.00 | 95 | 1019.9 |
| 20260506121519 | 44 | 152 | 0.0 | 0.0 | 0.00 | 0.00 | 0.00 | 95 | 1019.8 |
| 20260506121015 | 44 | 293 | 0.0 | 0.0 | 0.00 | 0.00 | 0.00 | 95 | 1019.9 |
| 20260506120514 | 43 | 123 | 0.0 | 0.0 | 0.00 | 0.00 | 0.00 | 95 | 1019.7 |
| 20260506120010 | 43 | 121 | 0.0 | 0.0 | 0.00 | 0.00 | 0.00 | 95 | 1019.8 |
| 20260506115508 | 43 | 120 | 0.0 | 0.0 | 0.00 | 0.00 | 0.00 | 95 | 1019.6 |
| 20260506115007 | 43 | 121 | 0.0 | 0.0 | 0.00 | 0.00 | 0.00 | 95 | 1019.6 |
| 20260506114503 | 43 | 121 | 0.0 | 0.0 | 0.00 | 0.00 | 0.00 | 95 | 1019.3 |
| 20260506114002 | 43 | 121 | 0.0 | 0.0 | 0.00 | 0.00 | 0.00 | 95 | 1019.5 |
| 20260506113459 | 43 | 122 | 0.0 | 0.0 | 0.00 | 0.00 | 0.00 | 95 | 1019.2 |
| 20260506112956 | 43 | 122 | 0.0 | 0.0 | 0.00 | 0.00 | 0.00 | 95 | 1018.7 |
| 20260506112453 | 43 | 122 | 0.0 | 0.0 | 0.00 | 0.00 | 0.00 | 95 | 1018.6 |
| 20260506111950 | 43 | 122 | 0.0 | 0.0 | 0.00 | 0.00 | 0.00 | 95 | 1018.6 |
| 20260506111448 | 43 | 122 | 0.0 | 0.0 | 0.00 | 0.00 | 0.00 | 95 | 1018.5 |
| 20260506110945 | 43 | 122 | 0.0 | 0.0 | 0.00 | 0.00 | 0.00 | 95 | 1018.3 |
| 20260506110443 | 43 | 124 | 0.0 | 0.0 | 0.00 | 0.00 | 0.00 | 95 | 1018.1 |
| 20260506105939 | 43 | 124 | 0.0 | 0.0 | 0.00 | 0.00 | 0.00 | 95 | 1018.3 |
| 20260506105436 | 43 | 124 | 0.0 | 0.0 | 0.00 | 0.00 | 0.00 | 95 | 1018.5 |
| 20260506104933 | 43 | 124 | 0.0 | 0.0 | 0.00 | 0.00 | 0.00 | 95 | 1018.3 |
| 20260506104431 | 43 | 122 | 0.0 | 0.0 | 0.00 | 0.00 | 0.00 | 95 | 1018.2 |
| 20260506103929 | 43 | 121 | 0.0 | 0.0 | 0.00 | 0.00 | 0.00 | 95 | 1018.3 |
| 20260506103426 | 43 | 123 | 0.0 | 0.0 | 0.00 | 0.00 | 0.00 | 95 | 1018.4 |
| 20260506102923 | 43 | 121 | 0.0 | 0.0 | 0.00 | 0.00 | 0.00 | 95 | 1018.2 |
| 20260506102421 | 42 | 121 | 0.0 | 0.0 | 0.00 | 0.00 | 0.00 | 95 | 1017.8 |
| 20260506101918 | 42 | 121 | 0.0 | 0.0 | 0.00 | 0.00 | 0.00 | 95 | 1017.9 |
| 20260506101414 | 43 | 121 | 0.0 | 0.0 | 0.00 | 0.00 | 0.00 | 95 | 1017.7 |
| 20260506100912 | 43 | 121 | 0.0 | 0.0 | 0.00 | 0.00 | 0.00 | 95 | 1018.0 |
| 20260506100410 | 43 | 120 | 0.0 | 0.0 | 0.00 | 0.00 | 0.00 | 95 | 1018.1 |
| 20260506095908 | 43 | 120 | 0.0 | 0.0 | 0.00 | 0.00 | 0.00 | 94 | 1018.1 |
| 20260506095406 | 43 | 119 | 0.0 | 0.0 | 0.00 | 0.00 | 0.00 | 94 | 1018.0 |
| 20260506094902 | 43 | 115 | 0.0 | 0.0 | 0.00 | 0.00 | 0.00 | 94 | 1017.8 |
| 20260506094401 | 43 | 120 | 0.0 | 0.0 | 0.00 | 0.00 | 0.00 | 94 | 1018.0 |
| 20260506093858 | 43 | 117 | 0.0 | 0.0 | 0.00 | 0.00 | 0.00 | 94 | 1018.3 |
| 20260506093355 | 43 | 122 | 0.0 | 0.0 | 0.00 | 0.00 | 0.00 | 94 | 1018.1 |
| 20260506092853 | 43 | 123 | 0.0 | 0.0 | 0.00 | 0.00 | 0.00 | 94 | 1017.7 |
| 20260506092351 | 43 | 123 | 0.0 | 0.0 | 0.00 | 0.00 | 0.00 | 94 | 1017.8 |
| 20260506091847 | 44 | 120 | 0.0 | 0.0 | 0.00 | 0.00 | 0.00 | 94 | 1017.9 |
| 20260506091346 | 44 | 115 | 0.0 | 0.0 | 0.00 | 0.00 | 0.00 | 94 | 1018.2 |
| 20260506090842 | 44 | 118 | 0.0 | 0.0 | 0.00 | 0.00 | 0.00 | 94 | 1017.9 |
| 20260506090340 | 44 | 117 | 0.0 | 0.0 | 0.00 | 0.00 | 0.00 | 94 | 1018.2 |
| 20260506085837 | 44 | 121 | 0.0 | 0.0 | 0.00 | 0.00 | 0.00 | 94 | 1018.3 |
| 20260506085332 | 44 | 102 | 0.0 | 0.0 | 0.00 | 0.00 | 0.00 | 94 | 1018.4 |
| 20260506084829 | 44 | 113 | 0.0 | 0.0 | 0.00 | 0.00 | 0.00 | 93 | 1018.7 |
| 20260506084326 | 44 | 106 | 0.0 | 0.0 | 0.00 | 0.00 | 0.00 | 93 | 1018.7 |
| 20260506083822 | 44 | 120 | 0.0 | 0.0 | 0.00 | 0.00 | 0.00 | 93 | 1018.6 |
| 20260506083320 | 44 | 83 | 0.0 | 0.0 | 0.00 | 0.00 | 0.00 | 93 | 1018.8 |
| 20260506082818 | 44 | 89 | 0.0 | 0.9 | 0.00 | 0.00 | 0.00 | 93 | 1018.7 |
| 20260506082314 | 44 | 123 | 0.0 | 0.0 | 0.00 | 0.00 | 0.00 | 93 | 1018.4 |
| 20260506081810 | 44 | 111 | 0.0 | 0.0 | 0.00 | 0.00 | 0.00 | 93 | 1018.8 |
| 20260506081308 | 44 | 123 | 0.0 | 0.0 | 0.00 | 0.00 | 0.00 | 93 | 1018.8 |
| 20260506080806 | 44 | 119 | 0.0 | 0.0 | 0.00 | 0.00 | 0.00 | 93 | 1018.2 |
| 20260506080302 | 44 | 123 | 0.0 | 0.0 | 0.00 | 0.00 | 0.00 | 93 | 1018.1 |
| 20260506073246 | 44 | 115 | 0.0 | 0.0 | 0.00 | 0.00 | 0.00 | 93 | 1017.7 |
| 20260506072743 | 44 | 103 | 0.9 | 0.9 | 0.00 | 0.00 | 0.00 | 93 | 1017.3 |
| 20260506072241 | 44 | 135 | 0.0 | 0.9 | 0.00 | 0.00 | 0.00 | 93 | 1016.7 |
| 20260506071738 | 44 | 116 | 0.0 | 0.9 | 0.00 | 0.00 | 0.00 | 93 | 1016.8 |
| 20260506071236 | 44 | 122 | 0.9 | 0.9 | 0.00 | 0.00 | 0.00 | 93 | 1016.8 |
| 20260506070733 | 44 | 110 | 0.9 | 0.9 | 0.00 | 0.00 | 0.00 | 92 | 1016.7 |
| 20260506070230 | 44 | 118 | 0.0 | 0.0 | 0.00 | 0.00 | 0.00 | 92 | 1016.4 |
| 20260506062207 | 45 | 116 | 0.0 | 0.0 | 0.00 | 0.00 | 0.00 | 90 | 1017.4 |
| 20260506061702 | 45 | 120 | 0.0 | 0.9 | 0.00 | 0.00 | 0.00 | 90 | 1017.5 |
| 20260506061200 | 46 | 86 | 2.6 | 2.6 | 0.00 | 0.00 | 0.00 | 90 | 1017.1 |
| 20260506060659 | 46 | 125 | 0.0 | 0.0 | 0.00 | 0.00 | 0.00 | 89 | 1016.8 |
| 20260506060155 | 46 | 89 | 0.9 | 1.7 | 0.00 | 0.00 | 0.00 | 89 | 1016.2 |
| 20260506051127 | 50 | 112 | 0.0 | 0.9 | 0.00 | 0.00 | 0.00 | 73 | 1015.7 |
| 20260506050625 | 50 | 119 | 0.9 | 1.7 | 0.00 | 0.00 | 0.00 | 72 | 1015.4 |
| 20260506050122 | 50 | 119 | 0.0 | 0.0 | 0.00 | 0.00 | 0.00 | 72 | 1016.2 |
| 20260506045115 | 50 | 115 | 0.0 | 0.0 | 0.00 | 0.00 | 0.00 | 75 | 1016.1 |
| 20260506044613 | 50 | 133 | 0.9 | 1.7 | 0.00 | 0.00 | 0.00 | 75 | 1016.0 |
| 20260506044110 | 50 | 123 | 0.0 | 0.0 | 0.00 | 0.00 | 0.00 | 78 | 1016.0 |
| 20260506043607 | 50 | 113 | 0.0 | 0.0 | 0.00 | 0.00 | 0.00 | 79 | 1016.1 |
| 20260506043105 | 50 | 117 | 0.0 | 0.0 | 0.00 | 0.00 | 0.00 | 80 | 1016.0 |
| 20260506042604 | 50 | 90 | 0.0 | 0.0 | 0.00 | 0.00 | 0.00 | 80 | 1015.8 |
| 20260506042102 | 50 | 113 | 0.0 | 0.0 | 0.00 | 0.00 | 0.00 | 81 | 1015.7 |
| 20260506041600 | 50 | 122 | 0.0 | 0.0 | 0.00 | 0.00 | 0.00 | 81 | 1015.9 |
| 20260506041056 | 50 | 115 | 0.0 | 0.0 | 0.00 | 0.00 | 0.00 | 81 | 1015.9 |
| 20260506040555 | 50 | 117 | 0.0 | 0.0 | 0.00 | 0.00 | 0.00 | 81 | 1016.1 |
| 20260506040050 | 50 | 114 | 0.0 | 0.0 | 0.00 | 0.00 | 0.00 | 81 | 1015.9 |
| 20260506035547 | 49 | 114 | 0.0 | 0.0 | 0.00 | 0.00 | 0.00 | 81 | 1015.9 |
| 20260506035044 | 49 | 123 | 0.0 | 0.0 | 0.00 | 0.00 | 0.00 | 82 | 1016.1 |
| 20260506034541 | 49 | 117 | 0.0 | 0.0 | 0.00 | 0.00 | 0.00 | 81 | 1015.9 |
| 20260506034038 | 49 | 122 | 0.0 | 0.0 | 0.00 | 0.00 | 0.00 | 81 | 1015.9 |
| 20260506033536 | 49 | 125 | 0.0 | 0.0 | 0.00 | 0.00 | 0.00 | 81 | 1016.0 |
| 20260506033032 | 49 | 121 | 0.0 | 0.0 | 0.00 | 0.00 | 0.00 | 81 | 1015.9 |
| 20260506032530 | 49 | 122 | 0.0 | 0.0 | 0.00 | 0.00 | 0.00 | 81 | 1016.1 |
| 20260506032026 | 49 | 123 | 0.0 | 0.0 | 0.00 | 0.00 | 0.00 | 81 | 1016.1 |
| 20260506031524 | 49 | 122 | 0.0 | 0.0 | 0.00 | 0.00 | 0.00 | 80 | 1016.1 |
| 20260506031021 | 49 | 94 | 0.0 | 0.0 | 0.00 | 0.00 | 0.00 | 81 | 1015.8 |
| 20260506030519 | 49 | 122 | 0.0 | 0.0 | 0.00 | 0.00 | 0.00 | 82 | 1015.3 |
| 20260506030016 | 49 | 123 | 0.0 | 0.0 | 0.00 | 0.00 | 0.00 | 81 | 1015.4 |
| 20260506025513 | 49 | 130 | 0.0 | 0.0 | 0.00 | 0.00 | 0.00 | 82 | 1015.4 |
| 20260506025009 | 49 | 124 | 0.0 | 0.0 | 0.00 | 0.00 | 0.00 | 83 | 1015.5 |
| 20260506024507 | 49 | 117 | 0.0 | 0.0 | 0.00 | 0.00 | 0.00 | 83 | 1015.6 |
| 20260506024002 | 49 | 112 | 0.0 | 0.9 | 0.00 | 0.00 | 0.00 | 83 | 1015.4 |
| 20260506023458 | 49 | 133 | 0.0 | 0.9 | 0.00 | 0.00 | 0.00 | 83 | 1015.4 |
| 20260506022955 | 49 | 16 | 0.9 | 1.7 | 0.00 | 0.00 | 0.00 | 83 | 1015.5 |
| 20260506022453 | 49 | 114 | 0.0 | 0.0 | 0.00 | 0.00 | 0.00 | 83 | 1015.7 |
| 20260506021951 | 49 | 108 | 0.0 | 0.9 | 0.00 | 0.00 | 0.00 | 82 | 1015.4 |
| 20260506021448 | 49 | 110 | 0.0 | 0.0 | 0.00 | 0.00 | 0.00 | 82 | 1015.6 |
| 20260506020945 | 50 | 80 | 0.9 | 1.7 | 0.00 | 0.00 | 0.00 | 80 | 1015.4 |
| 20260506020443 | 51 | 113 | 0.0 | 0.0 | 0.00 | 0.00 | 0.00 | 77 | 1015.5 |
| 20260506015940 | 51 | 124 | 0.0 | 0.0 | 0.00 | 0.00 | 0.00 | 73 | 1015.3 |
| 20260506015437 | 51 | 121 | 0.0 | 0.0 | 0.00 | 0.00 | 0.00 | 71 | 1015.2 |
| 20260506014934 | 51 | 87 | 0.9 | 1.7 | 0.00 | 0.00 | 0.00 | 70 | 1015.1 |
| 20260506014431 | 51 | 311 | 2.6 | 2.6 | 0.00 | 0.00 | 0.00 | 69 | 1015.0 |
| 20260506013927 | 51 | 107 | 0.0 | 0.0 | 0.00 | 0.00 | 0.00 | 69 | 1014.7 |
| 20260506013426 | 51 | 122 | 0.9 | 0.9 | 0.00 | 0.00 | 0.00 | 68 | 1014.7 |
| 20260506012921 | 51 | 103 | 0.0 | 0.0 | 0.00 | 0.00 | 0.00 | 68 | 1014.5 |
| 20260506012418 | 51 | 132 | 0.0 | 0.0 | 0.00 | 0.00 | 0.00 | 68 | 1014.7 |
| 20260506011915 | 51 | 122 | 0.0 | 0.0 | 0.00 | 0.00 | 0.00 | 68 | 1014.3 |
| 20260506011412 | 51 | 120 | 0.0 | 0.0 | 0.00 | 0.00 | 0.00 | 68 | 1014.7 |
| 20260506010909 | 52 | 120 | 0.0 | 0.0 | 0.00 | 0.00 | 0.00 | 68 | 1014.3 |
| 20260506010408 | 52 | 116 | 0.0 | 0.0 | 0.00 | 0.00 | 0.00 | 69 | 1014.2 |
| 20260506005904 | 52 | 107 | 0.0 | 0.0 | 0.00 | 0.00 | 0.00 | 68 | 1014.3 |
| 20260506005402 | 52 | 104 | 0.0 | 0.0 | 0.00 | 0.00 | 0.00 | 68 | 1014.3 |
| 20260506004856 | 52 | 113 | 0.0 | 0.9 | 0.00 | 0.00 | 0.00 | 68 | 1013.8 |
| 20260506004355 | 52 | 121 | 0.0 | 0.0 | 0.00 | 0.00 | 0.00 | 71 | 1014.0 |
| 20260506003851 | 52 | 124 | 0.0 | 0.0 | 0.00 | 0.00 | 0.00 | 73 | 1013.6 |
| 20260506003347 | 53 | 121 | 0.0 | 0.0 | 0.00 | 0.00 | 0.00 | 73 | 1014.0 |
| 20260506002843 | 53 | 118 | 0.0 | 0.0 | 0.00 | 0.00 | 0.00 | 73 | 1013.8 |
| 20260506002340 | 53 | 118 | 0.0 | 0.0 | 0.00 | 0.00 | 0.00 | 73 | 1013.7 |
| 20260506001836 | 53 | 118 | 0.0 | 0.0 | 0.00 | 0.00 | 0.00 | 73 | 1013.7 |
| 20260506001333 | 53 | 116 | 0.0 | 0.0 | 0.00 | 0.00 | 0.00 | 72 | 1013.8 |
| 20260506000830 | 53 | 110 | 0.9 | 1.7 | 0.00 | 0.00 | 0.00 | 71 | 1013.5 |
| 20260506000329 | 53 | 116 | 0.0 | 0.0 | 0.00 | 0.00 | 0.00 | 71 | 1013.4 |
| 20260505235824 | 53 | 62 | 0.9 | 0.9 | 0.00 | 0.00 | 0.00 | 71 | 1013.3 |
| 20260505235322 | 53 | 123 | 0.0 | 0.0 | 0.00 | 0.00 | 0.00 | 71 | 1013.4 |
| 20260505234818 | 53 | 137 | 0.0 | 0.9 | 0.00 | 0.00 | 0.00 | 70 | 1013.3 |
| 20260505234317 | 53 | 123 | 0.0 | 0.0 | 0.00 | 0.00 | 0.00 | 70 | 1013.3 |
| 20260505233813 | 53 | 124 | 0.0 | 0.0 | 0.00 | 0.00 | 0.00 | 70 | 1013.3 |
| 20260505233311 | 53 | 111 | 0.0 | 0.9 | 0.00 | 0.00 | 0.00 | 70 | 1013.2 |
| 20260505232808 | 53 | 125 | 0.0 | 0.9 | 0.00 | 0.00 | 0.00 | 70 | 1013.3 |
| 20260505232306 | 53 | 116 | 0.0 | 0.0 | 0.00 | 0.00 | 0.00 | 69 | 1013.5 |
| 20260505231802 | 53 | 91 | 0.0 | 0.0 | 0.00 | 0.00 | 0.00 | 69 | 1013.3 |
| 20260505231300 | 53 | 111 | 0.0 | 0.0 | 0.00 | 0.00 | 0.00 | 69 | 1013.2 |
| 20260505230758 | 53 | 113 | 0.0 | 0.0 | 0.00 | 0.00 | 0.00 | 69 | 1013.1 |
| 20260505230255 | 53 | 112 | 0.0 | 0.0 | 0.00 | 0.00 | 0.00 | 68 | 1012.8 |
| 20260505225752 | 53 | 111 | 0.0 | 0.0 | 0.00 | 0.00 | 0.00 | 68 | 1012.9 |
| 20260505225249 | 53 | 39 | 0.9 | 1.7 | 0.00 | 0.00 | 0.00 | 68 | 1012.8 |
| 20260505224743 | 53 | 107 | 0.9 | 0.9 | 0.00 | 0.00 | 0.00 | 68 | 1013.2 |